When you browse on this site, cookies collect data to enhance your experience and personalize the content and advertising you see.
Visit our Privacy Policy to learn more. By continuing to use the site, you agree to this use of cookies and data.
  • în România
  • Lista ţărilor
  • Pe 7 zile
  • Temperatura apei
  • Meteo pe hartă
  • Widget-uri
  • user-avatar
    Intrare

    Meteo pe oră la Glasgow

    Astăzi, 25 Ianuarie, Sâmbătă

    Timp Temperatura Precipitaţii Vânt Presiune Umiditate
    00:00 +3°C° 0 mm 5 m/s 759 mmHg 85%
    01:00 +3°C° 0 mm 5 m/s 758 mmHg 88%
    02:00 +3°C° 0 mm 5 m/s 758 mmHg 90%
    03:00 +3°C° 0 mm 6 m/s 757 mmHg 93%
    04:00 +3°C° 0 mm 6 m/s 757 mmHg 93%
    05:00 +3°C° 0 mm 7 m/s 756 mmHg 93%
    06:00 +2°C° 0 mm 8 m/s 756 mmHg 92%
    07:00 +3°C° 0 mm 7 m/s 756 mmHg 93%
    08:00 +3°C° 0 mm 7 m/s 756 mmHg 93%
    09:00 +2°C° 0 mm 7 m/s 756 mmHg 93%
    10:00 +4°C° 0 mm 7 m/s 755 mmHg 89%
    11:00 +5°C° 0 mm 7 m/s 755 mmHg 85%
    12:00 +6°C° 0 mm 7 m/s 755 mmHg 81%
    13:00 +6°C° 0 mm 7 m/s 754 mmHg 80%
    14:00 +6°C° 0 mm 7 m/s 754 mmHg 80%
    15:00 +6°C° 0 mm 7 m/s 754 mmHg 79%
    16:00 +5°C° 0 mm 7 m/s 753 mmHg 80%
    17:00 +5°C° 0 mm 6 m/s 753 mmHg 81%
    18:00 +4°C° 0 mm 6 m/s 753 mmHg 82%
    19:00 +4°C° 0 mm 6 m/s 753 mmHg 84%
    20:00 +4°C° 0 mm 7 m/s 753 mmHg 86%
    21:00 +4°C° 0 mm 7 m/s 752 mmHg 88%
    22:00 +4°C° 0 mm 8 m/s 752 mmHg 87%
    23:00 +4°C° 0 mm 8 m/s 751 mmHg 86%

    Mâine, 26 Ianuarie, Duminică

    Timp Temperatura Precipitaţii Vânt Presiune Umiditate
    00:00 +3°C° 0 mm 9 m/s 751 mmHg 84%
    01:00 +3°C° 0 mm 9 m/s 750 mmHg 85%
    02:00 +3°C° 0 mm 9 m/s 750 mmHg 86%
    03:00 +3°C° 0 mm 9 m/s 749 mmHg 87%
    04:00 +3°C° 0 mm 9 m/s 748 mmHg 86%
    05:00 +3°C° 0 mm 9 m/s 747 mmHg 84%
    06:00 +3°C° 0 mm 9 m/s 747 mmHg 83%
    07:00 +3°C° 0 mm 10 m/s 747 mmHg 84%
    08:00 +3°C° 0 mm 10 m/s 747 mmHg 84%
    09:00 +3°C° 0 mm 10 m/s 747 mmHg 85%
    10:00 +5°C° 0.3 mm 10 m/s 746 mmHg 87%
    11:00 +5°C° 0.3 mm 10 m/s 746 mmHg 89%
    12:00 +5°C° 0.3 mm 9 m/s 745 mmHg 91%
    13:00 +4°C° 0.9 mm 8 m/s 745 mmHg 91%
    14:00 +3°C° 0.9 mm 7 m/s 745 mmHg 91%
    15:00 +2°C° 0.9 mm 6 m/s 745 mmHg 92%
    16:00 +2°C° 0.1 mm 5 m/s 745 mmHg 91%
    17:00 +3°C° 0.1 mm 3 m/s 745 mmHg 90%
    18:00 +3°C° 0.1 mm 2 m/s 745 mmHg 89%
    19:00 +2°C° 0.1 mm 3 m/s 745 mmHg 88%
    20:00 +1°C° 0.1 mm 4 m/s 746 mmHg 87%
    21:00 0°C° 0.1 mm 5 m/s 746 mmHg 87%
    22:00 0°C° 0 mm 5 m/s 746 mmHg 87%
    23:00 -1°C° 0 mm 5 m/s 746 mmHg 88%

    Poimâine, 27 Ianuarie, Luni

    Timp Temperatura Precipitaţii Vânt Presiune Umiditate
    00:00 -1°C° 0 mm 5 m/s 746 mmHg 89%
    01:00 -1°C° 0 mm 5 m/s 745 mmHg 89%
    02:00 -2°C° 0 mm 5 m/s 745 mmHg 89%
    03:00 -2°C° 0 mm 5 m/s 745 mmHg 89%
    04:00 -2°C° 0 mm 6 m/s 744 mmHg 88%
    05:00 -2°C° 0 mm 6 m/s 743 mmHg 87%
    06:00 -1°C° 0 mm 7 m/s 742 mmHg 87%
    07:00 -1°C° 0.4 mm 7 m/s 742 mmHg 88%
    08:00 -1°C° 0.4 mm 8 m/s 741 mmHg 89%
    09:00 -1°C° 0.4 mm 8 m/s 741 mmHg 91%
    10:00 0°C° 0 mm 9 m/s 741 mmHg 86%
    11:00 0°C° 0 mm 9 m/s 740 mmHg 81%
    12:00 0°C° 0 mm 10 m/s 740 mmHg 75%
    13:00 0°C° 0 mm 9 m/s 740 mmHg 74%
    14:00 0°C° 0 mm 9 m/s 740 mmHg 73%
    15:00 0°C° 0 mm 9 m/s 739 mmHg 72%
    16:00 -1°C° 0 mm 9 m/s 740 mmHg 75%
    17:00 -1°C° 0 mm 9 m/s 740 mmHg 77%
    18:00 -3°C° 0 mm 9 m/s 740 mmHg 80%
    19:00 -4°C° 0 mm 8 m/s 739 mmHg 81%
    20:00 -3°C° 0 mm 7 m/s 739 mmHg 83%
    21:00 -2°C° 0 mm 5 m/s 739 mmHg 84%
    22:00 -2°C° 0 mm 5 m/s 739 mmHg 85%
    23:00 -2°C° 0 mm 5 m/s 739 mmHg 86%

    28 Ianuarie, Marţi

    Timp Temperatura Precipitaţii Vânt Presiune Umiditate
    00:00 -2°C° 0 mm 5 m/s 738 mmHg 87%
    01:00 -2°C° 0.1 mm 4 m/s 738 mmHg 86%
    02:00 -2°C° 0.1 mm 4 m/s 738 mmHg 86%
    03:00 -1°C° 0.1 mm 3 m/s 737 mmHg 86%
    04:00 -1°C° 0.7 mm 3 m/s 737 mmHg 88%
    05:00 -1°C° 0.7 mm 2 m/s 737 mmHg 90%
    06:00 -1°C° 0.7 mm 2 m/s 737 mmHg 93%
    07:00 -1°C° 0 mm 2 m/s 737 mmHg 91%
    08:00 -1°C° 0 mm 3 m/s 737 mmHg 89%
    09:00 -2°C° 0 mm 3 m/s 737 mmHg 87%
    10:00 -1°C° 0 mm 3 m/s 737 mmHg 82%
    11:00 0°C° 0 mm 4 m/s 737 mmHg 76%
    12:00 +1°C° 0 mm 4 m/s 737 mmHg 70%
    13:00 +1°C° 0 mm 4 m/s 737 mmHg 72%
    14:00 0°C° 0 mm 4 m/s 737 mmHg 74%
    15:00 0°C° 0 mm 4 m/s 737 mmHg 76%
    16:00 0°C° 0 mm 4 m/s 737 mmHg 78%
    17:00 -1°C° 0 mm 4 m/s 737 mmHg 81%
    18:00 -1°C° 0 mm 3 m/s 738 mmHg 84%
    19:00 -2°C° 0 mm 4 m/s 738 mmHg 84%
    20:00 -2°C° 0 mm 4 m/s 738 mmHg 84%
    21:00 -2°C° 0 mm 4 m/s 739 mmHg 84%
    22:00 -2°C° 0 mm 4 m/s 739 mmHg 84%
    23:00 -2°C° 0 mm 4 m/s 739 mmHg 85%

    29 Ianuarie, Miercuri

    Timp Temperatura Precipitaţii Vânt Presiune Umiditate
    00:00 -2°C° 0 mm 5 m/s 740 mmHg 85%
    01:00 -2°C° 0 mm 5 m/s 740 mmHg 84%
    02:00 -1°C° 0 mm 5 m/s 740 mmHg 82%
    03:00 -2°C° 0 mm 6 m/s 741 mmHg 81%
    04:00 -2°C° 0 mm 6 m/s 741 mmHg 79%
    05:00 -2°C° 0 mm 6 m/s 741 mmHg 77%
    06:00 -1°C° 0 mm 6 m/s 742 mmHg 76%
    07:00 -1°C° 0 mm 6 m/s 742 mmHg 77%
    08:00 -1°C° 0 mm 6 m/s 743 mmHg 79%
    09:00 -1°C° 0 mm 6 m/s 743 mmHg 81%
    10:00 0°C° 0 mm 7 m/s 743 mmHg 75%
    11:00 +2°C° 0 mm 7 m/s 744 mmHg 69%
    12:00 +4°C° 0 mm 7 m/s 744 mmHg 63%
    13:00 +4°C° 0 mm 8 m/s 745 mmHg 65%
    14:00 +2°C° 0 mm 8 m/s 745 mmHg 67%
    15:00 +2°C° 0 mm 8 m/s 746 mmHg 69%
    16:00 +1°C° 0 mm 8 m/s 747 mmHg 74%
    17:00 0°C° 0 mm 7 m/s 748 mmHg 79%
    18:00 -2°C° 0 mm 6 m/s 749 mmHg 85%
    19:00 -1°C° 0 mm 6 m/s 749 mmHg 85%
    20:00 0°C° 0 mm 5 m/s 749 mmHg 85%
    21:00 0°C° 0 mm 5 m/s 749 mmHg 85%
    22:00 0°C° 0.1 mm 7 m/s 748 mmHg 87%
    23:00 0°C° 0.1 mm 8 m/s 748 mmHg 89%

    30 Ianuarie, Joi

    Timp Temperatura Precipitaţii Vânt Presiune Umiditate
    00:00 +1°C° 0.1 mm 9 m/s 748 mmHg 91%
    01:00 +1°C° 0 mm 9 m/s 747 mmHg 90%
    02:00 +2°C° 0 mm 9 m/s 747 mmHg 90%
    03:00 +2°C° 0 mm 8 m/s 747 mmHg 89%
    04:00 +2°C° 0 mm 8 m/s 747 mmHg 89%
    05:00 +3°C° 0 mm 7 m/s 747 mmHg 89%
    06:00 +3°C° 0 mm 7 m/s 747 mmHg 89%
    07:00 +3°C° 0 mm 7 m/s 748 mmHg 90%
    08:00 +2°C° 0 mm 8 m/s 748 mmHg 91%
    09:00 +2°C° 0 mm 8 m/s 748 mmHg 92%
    10:00 +2°C° 0 mm 8 m/s 748 mmHg 89%
    11:00 +3°C° 0 mm 9 m/s 749 mmHg 85%
    12:00 +3°C° 0 mm 9 m/s 749 mmHg 82%
    13:00 +3°C° 0 mm 9 m/s 748 mmHg 82%
    14:00 +4°C° 0 mm 8 m/s 748 mmHg 81%
    15:00 +4°C° 0 mm 8 m/s 747 mmHg 81%
    16:00 +2°C° 0 mm 8 m/s 747 mmHg 82%
    17:00 +2°C° 0 mm 8 m/s 747 mmHg 83%
    18:00 +2°C° 0 mm 8 m/s 747 mmHg 84%
    19:00 +3°C° 0 mm 7 m/s 746 mmHg 87%
    20:00 +2°C° 0 mm 6 m/s 746 mmHg 89%
    21:00 +2°C° 0 mm 5 m/s 746 mmHg 92%
    22:00 +2°C° 0 mm 5 m/s 745 mmHg 93%
    23:00 +2°C° 0 mm 6 m/s 745 mmHg 94%
    Arată mai mult